Return to main menu page
Advertisement


SIRIUS-1 - Orbit Data

View from orbit pole
View from above orbital plane

View from above satellite
View from above satellite

Ground track

Ground track

The orbit data is extracted from the following two-line orbital elements,

1 26390U 00035A   10037.50540299  .00000062  00000-0  10000-3 0  6341
2 26390 061.3080 253.2477 2703562 270.1107 059.3470 01.00277113 35191

Epoch (UTC): 12:07:47 PM, Saturday, February 06, 2010
Eccentricity: 0.2703562
Inclination: 061.3080°
Perigee Height: 24,386 km
Apogee Height: 47,183 km
Right Ascension of Ascending Node: 253.2477°
Argument of Perigee: 270.1107°
Revolutions per Day: 01.00277113
Mean Anomaly at Epoch: 059.3470°
Orbit Number at Epoch: 3519

The dashed part of the orbit path shows where the satellite is in the earth's shadow, and the full part is where it is sunlit.


Developed and maintained by Chris Peat, Heavens-Above GmbH
Please read the updated FAQ before sending e-mail.
GSOC Home Page